Regional Weather Roundup
Issued by NWS

Home | Current Version | Previous Version | Graphics & Text | Print | Product List | Glossary On
Versions: 1 2 3 4 5 6 7 8 9 10 11 12 13 14 15 16 17 18 19 20 21 22 23 24 25 26 27 28 29 30 31 32 33 34 35 36 37 38 39 40 41 42 43 44 45 46 47 48 49 50
000
ASUS43 KTOP 221459
RWRKS

WEATHER ROUNDUP FOR KANSAS
NATIONAL WEATHER SERVICE GOODLAND KS
1000 AM CDT MON SEP 22 2014

NOTE:  "FAIR" INDICATES FEW OR NO CLOUDS BELOW 12,000 FEET WITH NO
SIGNIFICANT WEATHER AND/OR OBSTRUCTIONS TO VISIBILITY.

KSZ001>006-013>018-027>032-041>047-221600-
NORTHWEST KANSAS

CITY           SKY/WX    TMP DP  RH WIND       PRES   REMARKS
GOODLAND       PTSUNNY   62  43  49 S18G26    30.27F
HAYS           SUNNY     63  46  55 S14       30.32F
HILL CITY      SUNNY     65  46  50 S14G20    30.31F
RUSSELL        MOSUNNY   61  48  62 SE12      30.31F
$$

KSZ061>065-074>080-084>089-221600-
SOUTHWEST KANSAS

CITY           SKY/WX    TMP DP  RH WIND       PRES   REMARKS
DODGE CITY     SUNNY     65  43  44 S14       30.33S
ELKHART          N/A     64  48  56 S13         N/A
GARDEN CITY    SUNNY     63  43  48 SE14      30.32R
GREAT BEND     MOSUNNY   63  48  59 S10       30.33S
LIBERAL        MOSUNNY   64  43  45 SE13      30.34S
$$

KSZ066>073-081>083-090>101-221600-
SOUTHEAST KANSAS

CITY           SKY/WX    TMP DP  RH WIND       PRES   REMARKS
CHANUTE        SUNNY     64  52  64 SE3       30.33R
COFFEYVILLE    SUNNY     64  54  69 E7        30.32R
HUTCHINSON     MOSUNNY   65  50  58 SE10      30.34R
NEWTON         SUNNY     63  48  59 SE7       30.36R
PARSONS        SUNNY     66  54  65 CALM      30.33S
WICHITA INTL   MOSUNNY   67  47  48 SE8       30.33R
WICHITA JABRA  SUNNY     65  48  54 SE6       30.33R
WINFIELD       SUNNY     64  52  64 SE6       30.34R
$$

KSZ007>012-019>026-033>040-048>060-102>105-221600-
NORTHEAST KANSAS

CITY           SKY/WX    TMP DP  RH WIND       PRES   REMARKS
CONCORDIA      SUNNY     64  52  64 S8        30.33R
EMPORIA        SUNNY     61  54  77 VRB5      30.33R
LAWRENCE       SUNNY     60  52  74 CALM      30.34R
MANHATTAN      SUNNY     61  51  70 CALM      30.33S
OLATHE IND     SUNNY     63  51  65 E6        30.34R
OLATHE EXE     SUNNY     63  52  67 VRB5      30.32S
SALINA         SUNNY     61  51  70 CALM      30.33F
TOPEKA BILLARD SUNNY     62  55  77 E7        30.33S
TOPEKA FORBES  SUNNY     63  53  70 E6        30.32S
$$


USA.gov is the U.S. government's official web portal to all federal, state and local government web resources and services.